| time (UTC) | temp F | wind direction | speed knots | gust knots | rain 1hr in | rain 24hr in | rain mn in | humidity % | barometer mb |
| 20260505001524 | 64 | 292 | 0.0 | 0.9 | 0.00 | 0.00 | 0.00 | 60 | 1011.8 |
| 20260505000023 | 66 | 270 | 0.0 | 1.7 | 0.00 | 0.00 | 0.00 | 56 | 1011.8 |
| 20260504234522 | 69 | 283 | 0.0 | 0.9 | 0.00 | 0.00 | 0.00 | 52 | 1011.7 |
| 20260504231520 | 72 | 239 | 0.0 | 1.7 | 0.00 | 0.00 | 0.00 | 41 | 1011.6 |
| 20260504230020 | 73 | 244 | 0.0 | 6.1 | 0.00 | 0.00 | 0.00 | 37 | 1011.6 |
| 20260504224525 | 75 | 257 | 0.0 | 7.0 | 0.00 | 0.00 | 0.00 | 35 | 1011.5 |
| 20260504221519 | 75 | 264 | 2.6 | 6.1 | 0.00 | 0.00 | 0.00 | 36 | 1011.6 |
| 20260504220019 | 76 | 212 | 0.0 | 8.7 | 0.00 | 0.00 | 0.00 | 37 | 1011.4 |
| 20260504214534 | 77 | 271 | 1.7 | 7.8 | 0.00 | 0.00 | 0.00 | 36 | 1011.5 |
| 20260504211522 | 77 | 84 | 2.6 | 11.3 | 0.00 | 0.00 | 0.00 | 35 | 1011.4 |
| 20260504210022 | 77 | 81 | 3.5 | 11.3 | 0.00 | 0.00 | 0.00 | 37 | 1011.3 |
| 20260504204519 | 78 | 70 | 0.9 | 6.1 | 0.00 | 0.00 | 0.00 | 39 | 1011.4 |
| 20260504201514 | 78 | 84 | 2.6 | 6.1 | 0.00 | 0.00 | 0.00 | 37 | 1011.7 |
| 20260504200017 | 79 | 119 | 0.9 | 5.2 | 0.00 | 0.00 | 0.00 | 35 | 1012.0 |
| 20260504194512 | 78 | 184 | 0.9 | 5.2 | 0.00 | 0.00 | 0.00 | 36 | 1012.1 |
| 20260504191506 | 77 | 124 | 0.9 | 5.2 | 0.00 | 0.00 | 0.00 | 38 | 1012.6 |
| 20260504190006 | 77 | 278 | 0.0 | 4.3 | 0.00 | 0.00 | 0.00 | 37 | 1012.8 |
| 20260504184503 | 77 | 225 | 0.9 | 6.1 | 0.00 | 0.00 | 0.00 | 41 | 1012.9 |
| 20260504181603 | 76 | 124 | 0.0 | 7.0 | 0.00 | 0.00 | 0.00 | 36 | 1013.3 |
| 20260504180058 | 76 | 230 | 2.6 | 6.1 | 0.00 | 0.00 | 0.00 | 34 | 1013.5 |
| 20260504174557 | 75 | 235 | 0.0 | 4.3 | 0.00 | 0.00 | 0.00 | 36 | 1013.7 |
| 20260504171556 | 73 | 134 | 0.9 | 7.8 | 0.00 | 0.00 | 0.00 | 42 | 1013.9 |
| 20260504120129 | 44 | 305 | 0.0 | 0.9 | 0.00 | 0.00 | 0.00 | 90 | 1016.3 |
| 20260504081530 | 38 | 292 | 0.0 | 0.0 | 0.00 | 0.00 | 0.00 | 94 | 1015.7 |
| 20260504080128 | 39 | 286 | 0.0 | 1.7 | 0.00 | 0.00 | 0.00 | 93 | 1015.5 |
| 20260504070125 | 40 | 269 | 0.0 | 0.0 | 0.00 | 0.00 | 0.00 | 91 | 1015.5 |
| 20260504060121 | 42 | 278 | 0.0 | 0.0 | 0.00 | 0.00 | 0.00 | 89 | 1015.8 |
| 20260504050120 | 44 | 280 | 0.9 | 2.6 | 0.00 | 0.00 | 0.00 | 85 | 1016.0 |
| 20260504044520 | 44 | 302 | 0.9 | 3.5 | 0.00 | 0.00 | 0.00 | 85 | 1015.8 |
| 20260504043020 | 45 | 261 | 0.0 | 2.6 | 0.00 | 0.00 | 0.00 | 84 | 1015.7 |
| 20260504041519 | 45 | 246 | 0.0 | 0.0 | 0.00 | 0.00 | 0.00 | 85 | 1015.7 |
| 20260504040119 | 45 | 248 | 0.0 | 0.0 | 0.00 | 0.00 | 0.00 | 84 | 1015.6 |
| 20260504034519 | 45 | 283 | 0.0 | 0.0 | 0.00 | 0.00 | 0.00 | 84 | 1015.5 |
| 20260504033018 | 45 | 270 | 0.0 | 0.0 | 0.00 | 0.00 | 0.00 | 84 | 1015.5 |
| 20260504031518 | 45 | 267 | 0.0 | 0.0 | 0.00 | 0.00 | 0.00 | 83 | 1015.6 |
| 20260504030119 | 46 | 259 | 0.0 | 0.0 | 0.00 | 0.00 | 0.00 | 81 | 1015.7 |
| 20260504024518 | 47 | 276 | 0.0 | 0.0 | 0.00 | 0.00 | 0.00 | 80 | 1015.8 |
| 20260504023017 | 48 | 284 | 0.0 | 0.0 | 0.00 | 0.00 | 0.00 | 79 | 1015.7 |
| 20260504021517 | 49 | 284 | 0.0 | 0.0 | 0.00 | 0.00 | 0.00 | 77 | 1015.5 |
| 20260504020116 | 50 | 285 | 0.0 | 0.0 | 0.00 | 0.00 | 0.00 | 76 | 1015.2 |
| 20260504014517 | 50 | 284 | 0.0 | 0.0 | 0.00 | 0.00 | 0.00 | 75 | 1014.9 |
| 20260504013019 | 51 | 285 | 0.0 | 0.0 | 0.00 | 0.00 | 0.00 | 78 | 1014.7 |
| 20260504011517 | 52 | 290 | 0.0 | 0.9 | 0.00 | 0.00 | 0.00 | 76 | 1014.6 |
| 20260504010117 | 53 | 297 | 0.0 | 0.9 | 0.00 | 0.00 | 0.00 | 74 | 1014.4 |
| 20260504004532 | 54 | 298 | 0.0 | 0.9 | 0.00 | 0.00 | 0.00 | 73 | 1014.3 |